Voltar ao catálogo

STARLINK-35904

AtivoComunicaçõesVLEO
NORAD 66627·PAYLOAD·🇺🇸 United States

Lançado Nov 23, 2025 de Vandenberg Space Force Base

Loading…

Próximas Passagens (próximas 24 horas)

TLE

AtualizadoSource: CelesTrak SupGP

Época: Sep 14, 2026, 21:02 UTC

1 66627C 25271L   26257.87687500 -.00014271  00000+0 -42199-3 0  2578
2 66627  53.1587 340.0313 0001309  78.8218  90.1939 15.34372563    10

Acompanhe STARLINK-35904 em tempo real com AllMySat

Download on the App Store